#timestamp,LO_Frequency,Hit,StdDev 
1576724415.3,286047004.0,N
1576724435.2,286047003.9,N
1576724455.0,286047004.4,N
1576724455.9,286047004.4,N
1576724475.8,286047001.9,N
1576724495.6,286047002.3,N
1576724515.4,286047002.5,N
1576724535.3,286047004.1,N
1576724555.1,286047002.0,N
1576724575.8,286047002.0,N
1576724595.7,286047002.1,N
1576724615.5,286047002.7,N
1576724635.4,286047002.0,N
1576724655.2,286047002.3,N
1576724675.0,286047004.3,Y
1576724675.9,286047004.3,P
1576724695.8,286047001.6,N
1576724715.6,286047002.5,N
1576724735.5,286047004.0,Y
1576724755.3,286047000.7,P
1576724775.1,286047001.5,N
1576724795.9,286047001.5,N
1576724815.7,286047003.8,Y
1576724835.5,286046999.9,P
1576724855.4,286047001.1,N
1576724875.2,286046998.3,N
1576724895.1,286046998.2,N
1576724896.0,286046998.2,N
1576724915.8,286046999.4,N
1576724935.6,286046996.5,N
1576724955.5,286046999.1,N
1576724975.3,286046997.1,N
1576724995.1,286046997.9,N
1576725015.9,286046998.5,N
1576725035.7,286046998.1,N
1576725055.6,286047000.6,N
1576725075.4,286047002.8,N
1576725095.2,286047001.5,N
1576725115.1,286047000.8,N
1576725116.0,286047000.8,N
1576725135.8,286046998.3,N
1576725155.7,286046998.1,N
1576725175.5,286047001.2,N
1576725195.3,286047002.5,N
1576725215.2,286046999.3,N
1576725235.9,286046996.6,N
1576725255.7,286046996.9,N
1576725275.6,286046996.3,N
1576725295.4,286046994.0,Y
1576725315.3,286046994.9,P
1576725335.1,286046995.6,N
1576725336.0,286046995.6,N
1576725355.8,286046998.0,N
1576725375.7,286046997.8,N
1576725395.5,286046997.8,N
1576725415.3,286046997.1,N
1576725435.2,286046998.4,N
1576725455.0,286046999.4,N
1576725455.9,286046999.4,N
1576725475.8,286046998.6,N
1576725495.6,286047000.8,N
1576725515.4,286046998.1,N
1576725535.3,286046997.4,N
1576725555.1,286046995.5,N
1576725575.8,286046997.9,N
1576725595.7,286046995.3,Y
1576725615.5,286046999.7,P
1576725635.4,286046999.1,N
1576725655.2,286046998.8,N
1576725675.0,286047000.2,N
1576725675.9,286047000.2,N
1576725695.8,286047000.2,N
1576725715.6,286047002.7,Y
1576725735.4,286047004.0,P
1576725755.3,286047004.0,N
1576725775.1,286047002.4,N
1576725795.9,286047002.2,N
1576725815.7,286047002.8,N
1576725835.5,286047001.4,N
1576725855.4,286046999.9,N
1576725875.2,286047001.9,N
1576725895.0,286047001.1,N
1576725895.9,286047001.1,N
1576725915.8,286046998.6,N
1576725935.6,286046996.5,N
1576725955.5,286046997.3,N
1576725975.3,286046998.9,N
1576725995.1,286046999.2,N
1576726015.9,286047000.8,N
1576726035.7,286047001.1,N
1576726055.5,286046998.2,N
1576726075.4,286046998.7,N
1576726095.2,286046999.0,N
1576726115.1,286046999.4,N
1576726116.0,286046999.4,N
1576726135.8,286046996.9,N
1576726155.6,286046997.5,N
1576726175.5,286046998.6,N
1576726195.3,286046997.6,N
1576726215.1,286046996.0,N
1576726235.9,286046996.4,N
1576726255.7,286046996.4,N
1576726275.6,286046994.1,N
1576726295.4,286046991.8,Y
1576726315.2,286046994.7,P
1576726335.1,286046994.7,N
1576726336.0,286046994.7,N
1576726355.8,286046994.3,N
1576726375.7,286046996.4,N
1576726395.5,286046995.5,N
1576726415.3,286046996.3,N
1576726435.2,286046995.4,N
1576726455.0,286046996.4,N
1576726455.9,286046996.4,N
1576726475.7,286046996.1,N
1576726495.6,286046996.1,Y
1576726515.4,286046998.5,P
1576726535.3,286047001.1,N
1576726555.1,286046998.4,N
1576726575.8,286046998.7,N
1576726595.7,286047001.2,N
1576726615.5,286047000.1,N
1576726635.4,286047000.0,N
1576726655.2,286047002.7,N
1576726675.0,286046999.7,N
1576726675.9,286046999.7,N
1576726695.8,286047002.6,N
1576726715.6,286047001.5,N
1576726735.5,286047006.0,Y
1576726755.3,286047003.3,P
1576726775.1,286047005.5,P
1576726795.9,286047003.9,N
1576726815.7,286047006.7,Y
1576726835.6,286047001.7,P
1576726855.4,286047002.3,P
1576726875.2,286047004.1,P
1576726895.1,286047004.2,Y
1576726896.0,286047004.2,P
1576726915.8,286047000.4,N
1576726935.6,286047000.2,N
1576726955.5,286046998.8,N
1576726975.3,286046998.6,N
1576726995.2,286046996.8,N
1576727015.9,286046997.2,N
1576727035.7,286047000.6,N
1576727055.6,286047002.3,N
1576727075.4,286046998.5,N
1576727095.2,286046999.9,N
1576727115.1,286046998.8,N
1576727116.0,286046998.8,N
1576727135.8,286046996.6,N
1576727155.7,286046998.3,N
1576727175.5,286046999.3,N
1576727195.3,286046996.8,N
1576727215.2,286046999.9,N
1576727235.0,286047001.8,N
1576727235.9,286047001.8,N
1576727255.8,286047002.2,N
1576727275.6,286046999.7,N
1576727295.4,286046999.8,N
1576727315.3,286047001.7,N
1576727335.1,286047001.3,N
1576727355.8,286047003.4,N
1576727375.7,286047003.6,N
1576727395.5,286047004.2,N
1576727415.4,286047001.9,N
1576727435.2,286047000.0,N
1576727455.0,286046998.5,N
1576727455.9,286046998.5,N
1576727475.8,286046999.0,N
1576727495.6,286046999.4,N
1576727515.5,286046999.6,N
1576727535.3,286046998.7,N
1576727555.1,286046999.1,N
1576727575.9,286046996.5,N
1576727595.7,286046998.7,N
1576727615.5,286047001.1,N
1576727635.4,286046999.4,N
1576727655.2,286046999.9,N
1576727675.1,286046998.8,N
1576727676.0,286046998.8,N
1576727695.8,286046998.7,N
1576727715.6,286046998.7,N
1576727735.5,286046998.9,N
1576727755.3,286047000.3,N
1576727775.2,286047001.5,N
1576727795.9,286047002.2,N
1576727815.7,286047000.0,N
1576727835.6,286046998.1,N
1576727855.4,286046999.2,N
1576727875.2,286046998.1,N
1576727895.1,286047002.4,N
1576727896.0,286047002.4,N
1576727915.8,286047001.4,N
1576727935.7,286047002.1,N
1576727955.5,286047002.8,N
1576727975.3,286046999.3,N
1576727995.2,286046999.2,N
